Henderson, KY

6:16 PM CDT on September 16, 2019 (GMT -0500)
Henderson City-County

Weather History for KEHR - May, 2019

Change the Weather History Date:

Tuesday, May 7, 2019

  Actual Average Record
Temperature  
Mean Temperature 68 °F -  
Max Temperature 80 °F 75 °F 91 °F (1934)
Min Temperature 55 °F 52 °F 32 °F (1944)
Cooling Degree Days 2    
Growing Degree Days 18 (Base 50)    
Moisture  
Dew Point 59 °F    
Average Humidity 71    
Maximum Humidity 97    
Minimum Humidity 47    
Precipitation  
Precipitation 0.00 in - - ()
Sea Level Pressure  
Sea Level Pressure 30.10 in    
Wind  
Wind Speed 2 mph (SW)    
Max Wind Speed 9 mph    
Max Gust Speed -    
Visibility 10 miles    
Events      
Averages and records for this station are not official NWS values.
T = Trace of Precipitation, MM = Missing Value Source: NWS Daily Summary

Daily Weather History Graph

Daily Weather History Graph

Search for Another Location

Airport or City:

Astronomy

May. 07, 2019 Rise Set
Actual Time 5:48 AM CDT 7:46 PM CDT
Civil Twilight 5:19 AM CDT 8:15 PM CDT
Nautical Twilight 4:44 AM CDT 8:50 PM CDT
Astronomical Twilight 4:07 AM CDT 9:28 PM CDT
Moon 7:55 AM CDT (5/7) 10:45 PM CDT (5/7)
Length of Visible Light 14h 55m
Length of Day
13h 57m
Waxing Crescent, 9% of the Moon is Illuminated
May 7
Waxing Crescent
May 11
First Quarter
May 18
Full
May 26
Last Quarter
Jun 3
New

Hourly Weather History & Observations

Time (CDT) Temp. Heat Index Dew Point Humidity Pressure Visibility Wind Dir Wind Speed Gust Speed Precip Events Conditions
12:56 AM 59.0 °F - 57.0 °F 93% 30.08 in 10.0 mi Calm Calm - N/A   Clear
1:56 AM 57.9 °F - 57.0 °F 97% 30.09 in 10.0 mi Calm Calm - N/A   Clear
2:56 AM 57.0 °F - 55.9 °F 96% 30.09 in 10.0 mi Calm Calm - N/A   Clear
3:56 AM 55.9 °F - 55.0 °F 97% 30.09 in 10.0 mi Calm Calm - N/A   Clear
5:56 AM 55.0 °F - 54.0 °F 96% 30.12 in 10.0 mi Calm Calm - N/A   Clear
6:56 AM 60.1 °F - 57.0 °F 90% 30.14 in 10.0 mi Calm Calm - N/A   Clear
7:56 AM 64.0 °F - 57.0 °F 78% 30.15 in 10.0 mi SSE 3.5 mph - N/A   Scattered Clouds
8:56 AM 70.0 °F - 55.9 °F 61% 30.16 in 10.0 mi South 8.1 mph - N/A   Partly Cloudy
9:56 AM 73.9 °F - 57.0 °F 55% 30.12 in 10.0 mi East 3.5 mph - N/A   Clear
10:56 AM 77.0 °F - 57.0 °F 50% 30.11 in 10.0 mi Variable 6.9 mph - N/A   Clear
11:56 AM 79.0 °F - 57.9 °F 48% 30.13 in 10.0 mi SW 9.2 mph - N/A   Partly Cloudy
12:56 PM 80.1 °F 80.6 °F 57.9 °F 47% 30.12 in 10.0 mi WSW 6.9 mph - N/A   Partly Cloudy
1:56 PM 80.1 °F 80.7 °F 59.0 °F 48% 30.12 in 10.0 mi West 4.6 mph - N/A   Partly Cloudy
2:56 PM 79.0 °F - 60.1 °F 52% 30.10 in 10.0 mi WNW 6.9 mph - N/A   Mostly Cloudy
3:56 PM 78.1 °F - 60.1 °F 54% 30.09 in 10.0 mi NNW 4.6 mph - N/A   Mostly Cloudy
4:56 PM 79.0 °F - 61.0 °F 54% 30.08 in 10.0 mi Calm Calm - N/A   Mostly Cloudy
5:56 PM 79.0 °F - 61.0 °F 54% 30.08 in 10.0 mi Calm Calm - N/A   Scattered Clouds
6:56 PM 77.0 °F - 62.1 °F 60% 30.06 in 10.0 mi NNE 4.6 mph - N/A   Scattered Clouds
7:56 PM 72.0 °F - 64.0 °F 76% 30.08 in 10.0 mi Calm Calm - N/A   Scattered Clouds
8:56 PM 69.1 °F - 63.0 °F 81% 30.08 in 9.0 mi Calm Calm - N/A   Clear
9:56 PM 69.1 °F - 62.1 °F 78% 30.08 in 10.0 mi Calm Calm - N/A   Clear
10:56 PM 66.0 °F - 61.0 °F 84% 30.08 in 10.0 mi East 3.5 mph - N/A   Clear
11:56 PM 66.9 °F - 61.0 °F 81% 30.08 in 10.0 mi Calm Calm - N/A   Clear